Roda de Ter - l'Esquerda





Hora UTC 13:45
Temperatura 12.2 ºC
Humitat 68.0 %
Pressió 1026.3 hPa
Pluja 0.0 mm
Velocitat vent 8.0 km/h
Direcció vent ESE

Dades diàries 2021-03-01



Hora UTC (hivern +1h; estiu +2h)
Temperatura (ºC) Humitat (%) Pressió (hPa) Velocitat vent (km/h) Precipitació (mm)
Hora UTC Aire Humitat Pressió Vel. Dir. Vel. Max Dir. Intent. màx 5 min.
00:05 5.6 86.0 1027.4 1.6 W 1.6 0.0
00:10 5.6 86.0 1027.5 0.0 W 3.2 0.0
00:15 5.7 86.0 1027.4 1.6 W 3.2 0.0
00:20 5.7 86.0 1027.5 0.0 W 3.2 0.0
00:25 5.7 86.0 1027.4 0.0 W 1.6 0.0
00:30 5.7 86.0 1027.3 0.0 W 1.6 0.0
00:35 5.8 86.0 1027.4 1.6 W 3.2 0.0
00:40 5.8 87.0 1027.4 1.6 W 3.2 0.0
00:45 5.9 87.0 1027.4 0.0 W 3.2 0.0
00:50 5.9 87.0 1027.4 1.6 W 3.2 0.0
00:55 5.9 87.0 1027.3 0.0 W 3.2 0.0
01:00 6.0 87.0 1027.3 1.6 W 4.8 0.0
01:05 6.0 86.0 1027.3 0.0 W 4.8 0.0
01:10 6.1 86.0 1027.3 0.0 W 4.8 0.0
01:15 6.1 86.0 1027.3 1.6 W 4.8 0.0
01:20 6.2 86.0 1027.3 1.6 NW 4.8 0.0
01:25 6.3 86.0 1027.2 0.0 NW 4.8 0.0
01:30 6.2 86.0 1027.2 0.0 NW 3.2 0.0
01:35 6.2 86.0 1027.2 1.6 NW 3.2 0.0
01:40 6.2 85.0 1027.2 0.0 NW 4.8 0.0
01:45 6.1 85.0 1027.3 0.0 NW 4.8 0.0
01:50 6.0 85.0 1027.3 0.0 NW 3.2 0.0
01:55 5.9 85.0 1027.4 0.0 NW 1.6 0.0
02:00 5.8 85.0 1027.4 3.2 NW 3.2 0.0
02:05 5.8 86.0 1027.4 1.6 NW 3.2 0.0
02:10 5.8 86.0 1027.3 1.6 NW 1.6 0.0
02:15 5.7 86.0 1027.3 0.0 NW 3.2 0.0
02:20 5.7 85.0 1027.3 0.0 NW 3.2 0.0
02:25 5.6 86.0 1027.3 1.6 NW 3.2 0.0
02:30 5.6 85.0 1027.4 1.6 NW 3.2 0.0
02:35 5.5 85.0 1027.5 0.0 NW 3.2 0.0
02:40 5.4 85.0 1027.4 0.0 NW 3.2 0.0
02:45 5.3 85.0 1027.4 3.2 NW 3.2 0.0
02:50 5.2 85.0 1027.4 0.0 NW 3.2 0.0
02:55 5.2 85.0 1027.3 0.0 NW 3.2 0.0
03:00 5.1 85.0 1027.4 0.0 NW 1.6 0.0
03:05 5.0 85.0 1027.3 0.0 NW 3.2 0.0
03:10 4.9 85.0 1027.4 1.6 NW 3.2 0.0
03:15 4.9 85.0 1027.4 0.0 NW 3.2 0.0
03:20 4.9 85.0 1027.5 0.0 NW 3.2 0.0
03:25 4.9 85.0 1027.4 1.6 NW 3.2 0.0
03:30 4.8 85.0 1027.4 1.6 NW 3.2 0.0
03:35 4.6 85.0 1027.4 0.0 NW 3.2 0.0
03:40 4.5 85.0 1027.4 0.0 NW 1.6 0.0
03:45 4.4 85.0 1027.4 0.0 NW 3.2 0.0
03:50 4.2 86.0 1027.4 0.0 NW 3.2 0.0
03:55 4.2 86.0 1027.4 0.0 NW 1.6 0.0
04:00 4.1 86.0 1027.4 0.0 NW 1.6 0.0
04:05 3.9 86.0 1027.4 1.6 NW 3.2 0.0
04:10 3.8 86.0 1027.4 1.6 NW 4.8 0.0
04:15 3.6 86.0 1027.4 1.6 NW 4.8 0.0
04:20 3.6 86.0 1027.4 1.6 NW 3.2 0.0
04:25 3.6 86.0 1027.5 1.6 NW 4.8 0.0
04:30 3.6 86.0 1027.6 1.6 NW 4.8 0.0
04:35 3.4 86.0 1027.5 0.0 NW 3.2 0.0
04:40 3.3 87.0 1027.4 1.6 NW 3.2 0.0
04:45 3.3 86.0 1027.4 1.6 NW 3.2 0.0
04:50 3.3 87.0 1027.5 1.6 NW 3.2 0.0
04:55 3.4 87.0 1027.4 0.0 NW 3.2 0.0
05:00 3.4 87.0 1027.4 1.6 NW 3.2 0.0
05:05 3.3 87.0 1027.4 1.6 NW 3.2 0.0
05:10 3.2 87.0 1027.4 1.6 NW 3.2 0.0
05:15 3.1 87.0 1027.4 1.6 NW 3.2 0.0
05:20 2.9 87.0 1027.5 1.6 NW 3.2 0.0
05:25 3.1 88.0 1027.4 0.0 NW 3.2 0.0
05:30 3.2 88.0 1027.4 3.2 NW 4.8 0.0
05:35 3.2 88.0 1027.4 1.6 NW 4.8 0.0
05:40 3.3 88.0 1027.4 1.6 NW 3.2 0.0
05:45 3.3 88.0 1027.4 3.2 SW 3.2 0.0
05:50 3.4 88.0 1027.4 0.0 SW 3.2 0.0
05:55 3.5 88.0 1027.4 0.0 SW 3.2 0.0
06:00 3.6 87.0 1027.3 0.0 SW 1.6 0.0
06:05 3.6 87.0 1027.4 0.0 SW 1.6 0.0
06:10 3.7 87.0 1027.3 1.6 SW 1.6 0.0
06:15 3.7 87.0 1027.4 0.0 SW 1.6 0.0
06:20 3.7 87.0 1027.2 0.0 SW 3.2 0.0
06:25 3.6 88.0 1027.4 1.6 SW 3.2 0.0
06:30 3.6 88.0 1027.3 3.2 SW 3.2 0.0
06:35 3.6 88.0 1027.4 0.0 SW 3.2 0.0
06:40 3.6 88.0 1027.4 0.0 SW 3.2 0.0
06:45 3.7 88.0 1027.5 0.0 SW 3.2 0.0
06:50 3.6 88.0 1027.5 3.2 SW 3.2 0.0
06:55 3.6 89.0 1027.6 0.0 SW 3.2 0.0
07:00 3.7 89.0 1027.7 0.0 SW 3.2 0.0
07:05 3.9 89.0 1027.8 0.0 SW 3.2 0.0
07:10 3.9 89.0 1027.8 1.6 SW 3.2 0.0
07:15 4.1 89.0 1027.8 1.6 SW 3.2 0.0
07:20 4.2 89.0 1027.9 0.0 SW 3.2 0.0
07:25 4.3 89.0 1027.9 0.0 SW 3.2 0.0
07:30 4.4 89.0 1028.0 0.0 SW 3.2 0.0
07:35 4.6 88.0 1028.0 0.0 SW 3.2 0.0
07:40 4.7 87.0 1027.9 0.0 SW 3.2 0.0
07:45 4.9 88.0 1028.0 1.6 SW 3.2 0.0
07:50 4.9 86.0 1027.9 0.0 SW 3.2 0.0
07:55 5.1 87.0 1028.0 1.6 SW 3.2 0.0
08:00 5.2 86.0 1027.9 0.0 SW 3.2 0.0
08:05 5.4 86.0 1027.9 0.0 N 3.2 0.0
08:10 5.6 85.0 1027.8 3.2 N 3.2 0.0
08:15 5.7 84.0 1027.8 0.0 N 3.2 0.0
08:20 5.8 83.0 1027.7 0.0 N 3.2 0.0
08:25 5.9 83.0 1027.7 1.6 N 4.8 0.0
08:30 6.2 83.0 1027.8 0.0 N 4.8 0.0
08:35 6.3 82.0 1027.9 0.0 N 4.8 0.0
08:40 6.3 81.0 1027.9 1.6 N 4.8 0.0
08:45 6.4 82.0 1027.8 1.6 W 3.2 0.0
08:50 6.5 82.0 1027.8 0.0 W 3.2 0.0
08:55 6.7 82.0 1027.8 3.2 W 3.2 0.0
09:00 6.8 83.0 1027.9 1.6 S 4.8 0.0
09:05 7.0 82.0 1027.8 0.0 S 3.2 0.0
09:10 7.2 81.0 1027.8 1.6 S 3.2 0.0
09:15 7.4 81.0 1027.8 0.0 S 3.2 0.0
09:20 7.4 81.0 1027.8 0.0 S 1.6 0.0
09:25 7.7 80.0 1027.8 0.0 N 3.2 0.0
09:30 7.7 79.0 1027.7 0.0 N 3.2 0.0
09:35 7.7 79.0 1027.8 1.6 N 4.8 0.0
09:40 7.8 79.0 1027.8 0.0 WSW 4.8 0.0
09:45 8.3 79.0 1027.8 1.6 WSW 3.2 0.0
09:50 8.6 78.0 1027.7 0.0 N 3.2 0.0
09:55 8.9 77.0 1027.8 1.6 SSE 3.2 0.0
10:00 9.1 76.0 1027.8 1.6 SSE 4.8 0.0
10:05 9.3 74.0 1027.7 0.0 SSE 4.8 0.0
10:10 9.2 75.0 1027.7 0.0 SSE 3.2 0.0
10:15 9.6 76.0 1027.7 0.0 SSE 3.2 0.0
10:20 10.0 75.0 1027.6 1.6 SSE 3.2 0.0
10:25 10.2 75.0 1027.6 0.0 WSW 4.8 0.0
10:30 10.6 73.0 1027.6 1.6 WSW 8.0 0.0
10:35 11.2 75.0 1027.6 1.6 ENE 12.9 0.0
10:40 12.3 71.0 1027.5 6.4 E 12.9 0.0
10:45 13.3 70.0 1027.6 11.3 ESE 16.1 0.0
10:50 13.3 68.0 1027.4 8.0 N 17.7 0.0
10:55 12.9 67.0 1027.4 8.0 N 19.3 0.0
11:00 13.0 68.0 1027.4 4.8 N 19.3 0.0
11:05 13.1 67.0 1027.4 12.9 SE 24.1 0.0
11:10 13.2 66.0 1027.4 14.5 ENE 17.7 0.0
11:15 13.3 65.0 1027.3 3.2 SE 19.3 0.0
11:20 13.4 67.0 1027.2 9.7 ESE 19.3 0.0
11:25 13.7 66.0 1027.3 12.9 ESE 16.1 0.0
11:30 13.8 66.0 1027.2 3.2 ESE 14.5 0.0
11:35 13.3 64.0 1027.1 4.8 ENE 16.1 0.0
11:40 13.6 65.0 1027.1 6.4 SE 16.1 0.0
11:45 13.6 65.0 1027.1 11.3 E 17.7 0.0
11:50 13.6 65.0 1027.0 4.8 SSW 17.7 0.0
11:55 13.6 65.0 1027.0 6.4 S 24.1 0.0
12:00 13.3 66.0 1026.9 8.0 SE 24.1 0.0
12:05 13.1 65.0 1026.9 8.0 ESE 19.3 0.0
12:10 12.9 65.0 1027.0 4.8 SE 19.3 0.0
12:15 12.9 66.0 1026.9 4.8 SE 19.3 0.0
12:20 12.9 68.0 1026.7 6.4 E 19.3 0.0
12:25 12.9 67.0 1026.8 9.7 E 17.7 0.0
12:30 13.2 68.0 1026.8 9.7 E 24.1 0.0
12:35 13.6 66.0 1026.8 20.9 ENE 24.1 0.0
12:40 13.4 65.0 1026.7 9.7 N 24.1 0.0
12:45 13.5 66.0 1026.6 17.7 ENE 20.9 0.0
12:50 13.2 67.0 1026.7 8.0 SE 25.7 0.0
12:55 13.1 67.0 1026.7 17.7 ENE 22.5 0.0
13:00 12.9 67.0 1026.6 11.3 E 20.9 0.0
13:05 12.7 68.0 1026.6 4.8 ESE 20.9 0.0
13:10 12.9 68.0 1026.6 1.6 NE 20.9 0.0
13:15 13.1 69.0 1026.6 6.4 E 22.5 0.0
13:20 13.4 69.0 1026.6 12.9 ENE 22.5 0.0
13:25 12.9 69.0 1026.5 16.1 N 22.5 0.0
13:30 13.3 70.0 1026.6 6.4 N 20.9 0.0
13:35 13.6 68.0 1026.5 14.5 ENE 20.9 0.0
13:40 12.8 67.0 1026.3 14.5 ESE 20.9 0.0
13:45 12.2 68.0 1026.3 8.0 ESE 20.9 0.0
Màxima 13.9 89.0 1028.0 20.9 ENE 25.7 0.0
Mínima 2.9 64.0 1026.3
Total 0.0